Location: Estes P
(40.3770°N, 105.5210°W)
Time: 14:27:19
(UTC-06:00)

N. Korean satellite - Visible Passes

Search period start: 18 October 2017 00:00
Search period end: 28 October 2017 00:00
Orbit: 459 x 517 km, 97.2° (Epoch: 18 October)

Date Brightness Start Highest point End Pass type
(mag) Time Alt. Az. Time Alt. Az. Time Alt. Az.
18 Oct 6.4 18:59:22 10° SSE 19:02:53 73° ENE 19:06:22 10° N visible
19 Oct 10.0 20:11:42 10° WSW 20:13:16 12° W 20:14:50 10° WNW visible
20 Oct 9.0 19:46:52 10° SSW 19:49:47 24° W 19:52:41 10° NW visible
21 Oct 7.5 19:22:58 10° S 19:26:23 50° W 19:29:46 10° NNW visible
22 Oct 10.2 06:52:08 10° ENE 06:53:39 12° E 06:55:10 10° ESE visible
22 Oct 6.4 18:59:34 10° SSE 19:03:02 74° ENE 19:06:30 10° N visible
23 Oct 7.1 18:36:35 10° SE 18:39:46 34° ENE 18:42:56 10° N visible
23 Oct 10.0 20:11:57 10° WSW 20:13:25 12° W 20:14:52 10° WNW visible
24 Oct 9.0 19:47:04 10° SSW 19:49:55 24° W 19:52:46 10° NW visible
25 Oct 7.5 19:23:07 10° S 19:26:30 49° W 19:29:51 10° NNW visible
26 Oct 10.2 06:52:08 10° ENE 06:53:46 13° E 06:55:24 10° ESE visible
26 Oct 6.3 18:59:41 10° SSE 19:03:08 75° ENE 19:06:35 10° N visible
27 Oct 7.1 18:36:41 10° SE 18:39:50 34° ENE 18:43:00 10° N visible
27 Oct 10.0 20:12:09 10° WSW 20:13:31 12° W 20:14:52 10° WNW visible
